WB4FAY-4 Weather Reports


time (UTC)temp
C
wind
direction
speed
KPH
gust
KPH
rain 1hr
cm
rain 24hr
cm
rain mn
cm
humidity
%
barometer
mb
20260508093018 14 0 0.0 0.0 0.00 0.05 0.00 85 1016.1
20260508092517 14 138 0.0 1.6 0.00 0.05 0.00 84 1015.9
20260508092018 14 0 0.0 0.0 0.00 0.05 0.00 84 1015.8
20260508091517 14 0 0.0 0.0 0.00 0.05 0.00 83 1015.7
20260508091018 14 130 0.0 3.2 0.00 0.05 0.00 83 1015.8
20260508090517 15 134 0.0 4.8 0.00 0.05 0.00 83 1015.7
20260508090017 15 138 0.0 4.8 0.00 0.05 0.00 82 1015.9
20260508085517 15 119 3.2 4.8 0.00 0.05 0.00 82 1015.7
20260508085017 14 107 0.0 8.0 0.00 0.05 0.00 82 1015.7
20260508084517 15 140 1.6 3.2 0.00 0.05 0.00 83 1015.5
20260508084017 14 120 0.0 6.4 0.00 0.05 0.00 83 1015.6
20260508083517 14 89 3.2 6.4 0.00 0.05 0.00 83 1015.4
20260508083017 14 121 4.8 4.8 0.00 0.05 0.00 84 1015.5
20260508082517 14 119 0.0 4.8 0.00 0.05 0.00 84 1015.7
20260508082017 14 97 1.6 8.0 0.00 0.05 0.00 85 1015.6
20260508081517 14 123 0.0 6.4 0.00 0.05 0.00 86 1015.5
20260508081017 14 124 3.2 4.8 0.00 0.05 0.00 86 1015.4
20260508080517 15 0 0.0 0.0 0.00 0.05 0.00 86 1015.5
20260508080018 15 0 0.0 0.0 0.00 0.05 0.00 85 1015.5
20260508075517 15 0 0.0 0.0 0.00 0.05 0.00 84 1015.8
20260508075018 15 0 0.0 0.0 0.00 0.05 0.00 84 1015.9
20260508074517 15 0 0.0 0.0 0.00 0.05 0.00 83 1015.9
20260508074017 15 0 0.0 0.0 0.00 0.05 0.00 82 1015.9
20260508073517 15 0 0.0 0.0 0.00 0.05 0.00 81 1015.9
20260508073018 15 0 0.0 0.0 0.00 0.05 0.00 81 1016.0
20260508072517 15 0 0.0 0.0 0.00 0.05 0.00 80 1016.0
20260508072017 16 336 0.0 1.6 0.00 0.05 0.00 80 1016.0
20260508071517 16 346 1.6 9.7 0.00 0.05 0.00 80 1016.1
20260508071017 16 37 0.0 6.4 0.00 0.05 0.00 80 1016.0
20260508070517 16 3 1.6 9.7 0.00 0.05 0.00 80 1016.0
20260508070017 16 35 1.6 9.7 0.00 0.05 0.00 80 1016.0
20260508065517 16 179 1.6 4.8 0.00 0.05 0.00 80 1015.9
20260508065017 16 40 0.0 8.0 0.00 0.05 0.00 81 1016.0
20260508064517 16 7 1.6 8.0 0.00 0.05 0.00 81 1016.1
20260508064017 15 333 1.6 9.7 0.00 0.05 0.00 82 1016.1
20260508063517 15 309 0.0 9.7 0.00 0.05 0.00 83 1016.1
20260508063017 15 20 0.0 6.4 0.00 0.05 0.00 84 1016.1
20260508062517 15 347 1.6 12.9 0.00 0.05 0.00 85 1016.1
20260508062017 15 360 0.0 11.3 0.00 0.05 0.00 86 1016.3
20260508061518 15 48 3.2 3.2 0.00 0.05 0.00 86 1016.2
20260508061017 15 51 0.0 6.4 0.00 0.05 0.00 86 1016.3
20260508060517 15 38 0.0 4.8 0.00 0.05 0.00 87 1016.1
20260508060018 15 41 1.6 6.4 0.00 0.05 0.00 86 1016.2
20260508055517 15 47 1.6 4.8 0.00 0.05 0.00 87 1016.3
20260508055017 15 40 0.0 8.0 0.00 0.05 0.00 87 1016.4
20260508054517 15 45 0.0 4.8 0.00 0.05 0.00 87 1016.5
20260508054017 15 42 0.0 4.8 0.00 0.05 0.00 87 1016.5
20260508053517 15 40 0.0 3.2 0.00 0.05 0.00 87 1016.8
20260508053017 15 55 3.2 1.6 0.00 0.05 0.00 87 1016.8
20260508052517 15 0 0.0 0.0 0.00 0.05 0.00 87 1016.8
20260508052017 15 0 0.0 0.0 0.00 0.05 0.00 86 1016.8
20260508051518 15 0 0.0 0.0 0.00 0.05 0.00 86 1016.8
20260508051017 15 0 0.0 0.0 0.00 0.05 0.00 86 1016.8
20260508050517 15 38 0.0 1.6 0.00 0.05 0.00 85 1016.8
20260508050017 15 0 0.0 0.0 0.00 0.05 0.00 85 1016.9
20260508045517 15 0 0.0 0.0 0.00 0.00 0.05 85 1016.9
20260508045017 16 0 0.0 0.0 0.00 0.00 0.05 85 1016.8
20260508044518 16 0 0.0 0.0 0.00 0.00 0.05 84 1016.8
20260508044017 16 0 0.0 0.0 0.00 0.00 0.05 84 1016.9
20260508043517 16 0 0.0 0.0 0.00 0.00 0.05 83 1016.8
20260508043016 16 0 0.0 0.0 0.00 0.00 0.05 83 1016.8
20260508042517 16 58 0.0 0.0 0.00 0.00 0.05 83 1017.0
20260508042017 16 30 0.0 3.2 0.00 0.00 0.05 83 1016.8
20260508041518 16 10 0.0 1.6 0.00 0.00 0.05 82 1016.9
20260508041017 16 0 0.0 0.0 0.00 0.00 0.05 82 1016.8
20260508040518 16 0 0.0 0.0 0.00 0.00 0.05 82 1016.6
20260508040017 16 0 0.0 0.0 0.00 0.00 0.05 81 1017.0
20260508035517 16 0 0.0 0.0 0.00 0.00 0.05 80 1016.8
20260508035018 16 0 0.0 0.0 0.00 0.00 0.05 80 1016.9
20260508034518 16 11 0.0 3.2 0.00 0.00 0.05 80 1016.8
20260508034018 17 85 0.0 1.6 0.00 0.00 0.05 80 1016.8
20260508033517 17 25 0.0 1.6 0.00 0.00 0.05 80 1016.8
20260508033017 17 11 0.0 1.6 0.00 0.00 0.05 79 1016.6
20260508032517 17 0 1.6 0.0 0.00 0.00 0.05 77 1016.6
20260508032016 17 10 0.0 3.2 0.00 0.00 0.05 77 1016.6
20260508031517 17 347 1.6 6.4 0.00 0.00 0.05 76 1016.8
20260508031017 17 301 0.0 4.8 0.00 0.00 0.05 75 1016.6
20260508030517 17 295 0.0 4.8 0.00 0.00 0.05 74 1016.4
20260508030017 17 294 1.6 4.8 0.00 0.00 0.05 74 1016.4
20260508025517 17 17 3.2 8.0 0.00 0.00 0.05 74 1016.4
20260508025017 17 328 6.4 8.0 0.00 0.00 0.05 73 1016.6
20260508024517 17 16 1.6 8.0 0.00 0.00 0.05 73 1016.4
20260508024017 17 14 1.6 6.4 0.00 0.00 0.05 72 1016.1
20260508023517 17 17 0.0 8.0 0.00 0.00 0.05 73 1016.1
20260508023017 17 337 0.0 11.3 0.00 0.00 0.05 73 1016.1
20260508022518 17 6 0.0 8.0 0.00 0.00 0.05 75 1016.4
20260508022017 17 340 4.8 4.8 0.00 0.00 0.05 74 1016.2
20260508021517 17 318 1.6 9.7 0.00 0.00 0.05 75 1015.9
20260508021017 17 343 3.2 8.0 0.00 0.00 0.05 76 1016.1
20260508020517 17 325 3.2 8.0 0.00 0.00 0.05 76 1016.1
20260508020017 17 337 0.0 6.4 0.00 0.00 0.05 76 1016.0
20260508015517 17 359 1.6 6.4 0.00 0.00 0.05 76 1015.9
20260508015017 17 10 0.0 6.4 0.00 0.00 0.05 76 1015.8
20260508014517 17 344 3.2 3.2 0.00 0.00 0.05 77 1016.0
20260508014017 17 8 0.0 4.8 0.00 0.00 0.05 77 1015.9
20260508013517 17 44 1.6 11.3 0.00 0.00 0.05 77 1015.9
20260508013017 17 38 0.0 4.8 0.00 0.00 0.05 79 1015.8
20260508012517 17 0 0.0 0.0 0.00 0.00 0.05 79 1015.8
20260508012017 17 0 0.0 0.0 0.00 0.00 0.05 79 1015.7
20260508011517 18 0 0.0 0.0 0.00 0.00 0.05 79 1015.8
20260508011017 18 0 0.0 0.0 0.00 0.00 0.05 78 1015.7
20260508010517 18 318 0.0 1.6 0.00 0.00 0.05 77 1015.6
20260508010017 18 356 0.0 3.2 0.00 0.00 0.05 77 1015.5
20260508005517 18 0 0.0 0.0 0.00 0.00 0.05 76 1015.5
20260508005017 18 0 0.0 0.0 0.00 0.00 0.05 75 1015.4
20260508004517 18 344 0.0 3.2 0.00 0.00 0.05 74 1015.3
20260508004017 19 0 0.0 0.0 0.00 0.00 0.05 73 1015.3
20260508003517 19 349 0.0 6.4 0.00 0.00 0.05 71 1015.4
20260508003018 19 343 1.6 6.4 0.00 0.00 0.05 70 1015.3
20260508002517 20 346 0.0 3.2 0.00 0.00 0.05 71 1015.4
20260508002017 20 56 1.6 4.8 0.00 0.00 0.05 69 1015.3
20260508001517 20 308 1.6 6.4 0.00 0.00 0.05 69 1015.4
20260508001017 20 316 0.0 6.4 0.00 0.00 0.05 67 1015.4
20260508000517 20 347 0.0 9.7 0.00 0.00 0.05 67 1015.2
20260508000017 20 350 4.8 4.8 0.00 0.00 0.05 69 1015.2
20260507235517 20 17 4.8 8.0 0.00 0.00 0.05 67 1015.1
20260507235017 20 359 1.6 9.7 0.00 0.00 0.05 66 1015.1
20260507234517 20 8 1.6 9.7 0.00 0.00 0.05 67 1014.9
20260507234017 20 18 3.2 8.0 0.00 0.00 0.05 67 1014.8
20260507233518 21 346 0.0 11.3 0.00 0.00 0.05 68 1014.9
20260507233017 21 340 4.8 11.3 0.00 0.00 0.05 67 1015.0
20260507232517 21 27 1.6 6.4 0.00 0.00 0.05 66 1014.8
20260507232017 21 326 1.6 12.9 0.00 0.00 0.05 65 1014.8
20260507231518 21 318 4.8 8.0 0.00 0.00 0.05 65 1014.7
20260507231017 21 328 0.0 9.7 0.00 0.00 0.05 66 1014.7
20260507230517 21 340 6.4 16.1 0.00 0.00 0.05 65 1014.7
20260507230017 22 323 4.8 6.4 0.00 0.00 0.05 66 1014.6
20260507225517 22 329 0.0 11.3 0.00 0.00 0.05 64 1014.5
20260507225017 22 32 4.8 9.7 0.00 0.00 0.05 64 1014.5
20260507224517 23 23 0.0 4.8 0.00 0.00 0.05 64 1014.4
20260507224016 23 10 3.2 6.4 0.00 0.00 0.05 62 1014.5
20260507223517 23 24 0.0 6.4 0.00 0.00 0.05 63 1014.4
20260507223018 22 78 1.6 3.2 0.00 0.00 0.05 63 1014.5
20260507222517 22 86 0.0 4.8 0.00 0.00 0.05 64 1014.4
20260507222017 22 330 0.0 6.4 0.00 0.00 0.05 63 1014.3
20260507221517 22 264 3.2 9.7 0.00 0.00 0.05 64 1014.4
20260507221017 22 193 3.2 9.7 0.00 0.00 0.05 63 1014.5
20260507220517 22 37 3.2 11.3 0.00 0.00 0.05 64 1014.4
20260507220017 22 17 6.4 11.3 0.00 0.00 0.05 62 1014.4
20260507215517 22 52 4.8 9.7 0.00 0.00 0.05 62 1014.3
20260507215017 22 318 1.6 6.4 0.00 0.00 0.05 63 1014.4
20260507214516 23 302 1.6 6.4 0.00 0.00 0.05 63 1014.3
20260507214017 23 59 3.2 4.8 0.00 0.00 0.05 63 1014.2
20260507213517 22 16 0.0 4.8 0.00 0.00 0.05 65 1014.3
20260507213017 22 347 1.6 4.8 0.00 0.00 0.05 65 1014.3
20260507212517 22 325 1.6 11.3 0.00 0.00 0.05 64 1014.1
20260507212017 22 1 3.2 16.1 0.00 0.00 0.05 63 1014.2
20260507211517 22 339 3.2 8.0 0.00 0.00 0.05 63 1014.2
20260507211017 22 8 0.0 11.3 0.00 0.00 0.05 65 1014.0
20260507210517 22 107 4.8 4.8 0.00 0.00 0.05 66 1014.0
20260507210017 22 30 0.0 11.3 0.00 0.00 0.05 66 1014.1
20260507205517 22 312 6.4 12.9 0.00 0.00 0.05 67 1014.1
20260507205017 22 268 3.2 16.1 0.00 0.00 0.05 63 1014.2
20260507204517 22 326 0.0 9.7 0.00 0.00 0.05 64 1014.3
20260507204017 22 285 0.0 6.4 0.00 0.00 0.05 65 1014.5
20260507203517 22 318 4.8 8.0 0.00 0.00 0.05 65 1014.4
20260507203017 22 288 4.8 8.0 0.00 0.00 0.05 65 1014.4
20260507202517 22 241 3.2 8.0 0.00 0.00 0.05 66 1014.4
20260507202017 22 230 3.2 8.0 0.00 0.00 0.05 68 1014.2
20260507201517 22 227 1.6 8.0 0.00 0.00 0.05 70 1014.4
20260507201017 22 64 4.8 9.7 0.00 0.00 0.05 69 1014.4
20260507200517 21 16 3.2 8.0 0.00 0.00 0.05 70 1014.6
20260507200017 21 264 3.2 8.0 0.00 0.00 0.05 72 1014.6
20260507195517 21 265 4.8 6.4 0.00 0.00 0.05 72 1014.4
20260507195017 21 210 1.6 8.0 0.00 0.00 0.05 70 1014.5
20260507194517 21 339 4.8 9.7 0.00 0.00 0.05 74 1014.7
20260507194017 21 336 4.8 6.4 0.00 0.00 0.05 71 1014.7
20260507193517 20 148 1.6 6.4 0.00 0.00 0.05 74 1014.7
20260507193018 20 360 1.6 11.3 0.00 0.00 0.05 75 1014.6
20260507192517 20 337 4.8 9.7 0.00 0.00 0.05 75 1014.6
20260507192018 20 27 8.0 6.4 0.00 0.00 0.05 76 1014.8
20260507191517 20 93 0.0 4.8 0.00 0.00 0.05 78 1014.9
20260507191017 20 97 4.8 6.4 0.00 0.00 0.05 76 1014.8
20260507190517 20 104 0.0 9.7 0.00 0.00 0.05 75 1014.7
20260507190018 20 325 4.8 11.3 0.00 0.00 0.05 76 1014.8
20260507185517 20 353 9.7 9.7 0.00 0.00 0.05 77 1014.8
20260507185017 19 13 6.4 11.3 0.00 0.00 0.05 78 1014.7
20260507184517 18 333 3.2 14.5 0.00 0.00 0.05 78 1015.0
20260507184017 18 340 6.4 12.9 0.00 0.00 0.05 79 1014.9
20260507183517 18 271 1.6 8.0 0.00 0.00 0.05 80 1015.2
20260507183017 18 3 1.6 12.9 0.00 0.00 0.05 80 1015.2
20260507182517 18 320 4.8 12.9 0.00 0.00 0.05 81 1015.3
20260507182017 18 308 4.8 14.5 0.00 0.00 0.05 82 1015.5
20260507181517 18 360 0.0 9.7 0.00 0.00 0.05 83 1015.5
20260507181017 18 359 6.4 16.1 0.00 0.00 0.05 84 1015.5
20260507180517 18 278 3.2 12.9 0.00 0.00 0.05 85 1015.6
20260507180017 18 4 3.2 8.0 0.00 0.00 0.05 86 1015.4
20260507175517 17 4 3.2 11.3 0.00 0.00 0.05 86 1015.5
20260507175017 17 350 9.7 12.9 0.00 0.00 0.05 86 1015.7
20260507174516 17 34 11.3 4.8 0.00 0.00 0.05 89 1015.7
20260507174017 17 289 3.2 3.2 0.00 0.00 0.05 89 1015.7
20260507173517 17 322 3.2 6.4 0.00 0.00 0.05 90 1015.8
20260507173017 17 247 0.0 8.0 0.00 0.00 0.05 91 1015.9
20260507172517 17 337 3.2 9.7 0.00 0.00 0.05 92 1015.9
20260507172017 17 342 1.6 16.1 0.00 0.00 0.05 93 1015.9
20260507171517 16 312 0.0 8.0 0.00 0.00 0.05 94 1016.0
20260507171017 16 239 1.6 8.0 0.00 0.00 0.05 95 1015.9
20260507170517 16 47 0.0 4.8 0.00 0.00 0.05 95 1016.0
20260507170017 16 7 0.0 9.7 0.00 0.00 0.05 95 1016.1
20260507165517 16 342 8.0 8.0 0.00 0.00 0.05 95 1016.2
20260507165017 16 312 1.6 8.0 0.00 0.00 0.05 95 1016.3
20260507164517 16 343 1.6 6.4 0.00 0.00 0.05 95 1016.1
20260507164017 16 349 6.4 9.7 0.00 0.00 0.05 95 1016.0
20260507163517 16 312 1.6 6.4 0.00 0.00 0.05 96 1015.9
20260507163017 16 335 3.2 8.0 0.00 0.00 0.05 96 1015.8
20260507162517 16 318 3.2 9.7 0.00 0.00 0.05 96 1015.8
20260507162017 16 281 6.4 6.4 0.00 0.00 0.05 96 1015.7
20260507161517 16 360 1.6 11.3 0.00 0.00 0.05 96 1015.7
20260507161017 16 45 9.7 8.0 0.00 0.00 0.05 96 1015.7
20260507160517 16 339 8.0 6.4 0.00 0.00 0.05 96 1015.7
20260507160017 16 0 0.0 0.0 0.00 0.00 0.05 96 1015.5
20260507155517 16 346 0.0 9.7 0.00 0.00 0.05 96 1015.3
20260507155017 16 306 0.0 4.8 0.00 0.00 0.05 97 1015.6
20260507154517 16 296 0.0 9.7 0.00 0.00 0.05 97 1015.4
20260507154017 16 339 1.6 9.7 0.00 0.00 0.05 97 1015.4
20260507153517 16 1 4.8 9.7 0.00 0.00 0.05 97 1015.3
20260507153017 16 298 0.0 12.9 0.00 0.00 0.05 97 1015.3
20260507152517 16 186 1.6 6.4 0.00 0.00 0.05 97 1015.3
20260507152017 16 347 0.0 12.9 0.00 0.00 0.05 97 1015.1
20260507151517 16 62 6.4 11.3 0.00 0.00 0.05 97 1015.1
20260507151017 16 356 4.8 14.5 0.00 0.00 0.05 97 1015.2
20260507150517 16 56 3.2 8.0 0.00 0.00 0.05 97 1015.2
20260507150017 16 330 1.6 6.4 0.00 0.00 0.05 97 1015.1
20260507145517 16 1 0.0 8.0 0.00 0.00 0.05 97 1014.9
20260507145017 16 113 4.8 3.2 0.00 0.00 0.05 97 1014.9
20260507144518 16 275 1.6 8.0 0.00 0.00 0.05 97 1014.8
20260507144017 16 346 4.8 8.0 0.00 0.00 0.05 97 1014.9
20260507143517 16 352 4.8 8.0 0.00 0.00 0.05 97 1014.9
20260507143017 16 315 0.0 4.8 0.00 0.00 0.05 98 1014.9
20260507142517 16 344 0.0 6.4 0.00 0.00 0.05 98 1015.0
20260507142017 16 360 0.0 6.4 0.00 0.00 0.05 98 1014.9
20260507141517 16 232 0.0 1.6 0.00 0.00 0.05 98 1014.8
20260507141017 16 347 1.6 8.0 0.00 0.00 0.05 98 1014.8
20260507140517 16 270 0.0 6.4 0.00 0.00 0.05 98 1014.7
20260507140018 16 25 0.0 11.3 0.00 0.00 0.05 98 1014.7
20260507135517 16 34 3.2 11.3 0.00 0.00 0.05 98 1014.5
20260507135017 16 353 0.0 11.3 0.00 0.00 0.05 98 1014.5
20260507134517 16 1 0.0 4.8 0.00 0.00 0.05 98 1014.5
20260507134017 16 0 1.6 0.0 0.00 0.00 0.05 98 1014.6
20260507133517 16 0 0.0 0.0 0.00 0.00 0.05 98 1014.6
20260507133017 16 0 0.0 0.0 0.00 0.00 0.05 98 1014.5
20260507132517 16 0 0.0 0.0 0.00 0.00 0.05 98 1014.4
20260507132017 16 23 0.0 11.3 0.00 0.00 0.05 98 1014.2
20260507131517 16 17 6.4 6.4 0.00 0.00 0.05 98 1014.1
20260507131017 16 34 0.0 8.0 0.00 0.00 0.05 98 1014.2
20260507130517 16 114 0.0 8.0 0.00 0.00 0.05 98 1014.2
20260507130017 16 90 4.8 9.7 0.00 0.00 0.05 98 1013.9
20260507125517 16 85 0.0 11.3 0.00 0.00 0.05 98 1013.8
20260507125017 16 0 0.0 0.0 0.00 0.00 0.05 98 1013.9
20260507124517 16 0 0.0 0.0 0.00 0.00 0.05 98 1013.9
20260507124017 16 102 0.0 1.6 0.00 0.00 0.05 98 1013.8
20260507123517 16 360 0.0 6.4 0.00 0.00 0.05 98 1013.8
20260507123018 16 27 0.0 14.5 0.00 0.00 0.05 98 1013.9
20260507122517 16 360 0.0 11.3 0.00 0.00 0.05 98 1013.6
20260507122017 16 359 0.0 11.3 0.00 0.00 0.05 98 1013.5
20260507121517 16 280 0.0 4.8 0.00 0.00 0.05 98 1013.4
20260507121017 16 344 0.0 8.0 0.00 0.00 0.05 98 1013.2
20260507120517 16 326 0.0 0.0 0.00 0.00 0.05 98 1012.9
20260507120017 16 0 0.0 0.0 0.00 0.00 0.05 98 1012.9
20260507115518 16 336 0.0 4.8 0.00 0.00 0.05 98 1012.8
20260507115017 15 353 0.0 6.4 0.00 0.00 0.03 98 1012.9
20260507114517 16 102 0.0 1.6 0.00 0.00 0.03 98 1012.9
20260507114017 16 113 0.0 3.2 0.00 0.00 0.03 98 1012.9
20260507113517 16 349 0.0 12.9 0.00 0.00 0.03 98 1012.8
20260507113017 15 360 1.6 12.9 0.00 0.00 0.03 98 1012.7
20260507112517 16 23 8.0 8.0 0.00 0.00 0.03 98 1012.7
20260507112017 16 342 0.0 6.4 0.00 0.00 0.03 98 1012.7
20260507111518 15 18 4.8 11.3 0.00 0.00 0.03 98 1012.6
20260507111017 15 31 0.0 16.1 0.00 0.00 0.03 98 1012.6
20260507110517 15 342 4.8 16.1 0.00 0.00 0.03 97 1012.6
20260507110017 16 309 0.0 14.5 0.00 0.00 0.03 97 1012.6
20260507105517 16 337 11.3 24.1 0.00 0.00 0.03 97 1012.8
20260507105018 16 291 14.5 16.1 0.00 0.00 0.03 97 1012.9
20260507104518 16 38 4.8 17.7 0.00 0.00 0.03 97 1012.3
20260507104017 16 346 0.0 12.9 0.00 0.00 0.03 97 1012.1
20260507103517 16 37 4.8 9.7 0.00 0.00 0.03 97 1011.8
20260507103017 16 350 0.0 6.4 0.00 0.00 0.03 97 1011.8
20260507102517 16 16 1.6 12.9 0.00 0.00 0.03 97 1011.7
20260507102017 17 11 11.3 16.1 0.00 0.00 0.03 97 1011.6
20260507101518 17 329 4.8 17.7 0.00 0.00 0.03 97 1011.7
20260507101017 17 353 4.8 14.5 0.00 0.00 0.03 97 1011.6
20260507100517 17 323 4.8 17.7 0.00 0.00 0.03 97 1011.2
20260507100018 18 291 4.8 12.9 0.00 0.00 0.03 97 1011.2
20260507095517 18 329 6.4 8.0 0.00 0.00 0.03 98 1011.1
20260507095017 18 0 0.0 0.0 0.00 0.00 0.03 98 1011.0
20260507094518 18 323 0.0 8.0 0.00 0.00 0.03 98 1011.0
20260507094017 18 16 0.0 8.0 0.00 0.00 0.03 98 1011.1
20260507093518 18 18 1.6 1.6 0.00 0.00 0.03 98 1011.3